Time,TemperatureF,DewpointF,PressureIn,WindDirection,WindDirectionDegrees,WindSpeedMPH,WindSpeedGustMPH,Humidity,HourlyPrecipIn,Conditions,Clouds,dailyrainin,SoftwareType,DateUTC
2013-10-29 00:01:00,36.3,31.6,30.34,West,276,0.0,3.0,83,0.00,,,0.00,WUHU216DAVISVP2,2013-10-29 04:01:00,
2013-10-29 00:06:00,36.3,31.6,30.34,West,273,0.0,3.0,83,0.00,,,0.00,WUHU216DAVISVP2,2013-10-29 04:06:00,
2013-10-29 00:11:00,36.2,31.8,30.34,WNW,291,1.0,4.0,84,0.00,,,0.00,WUHU216DAVISVP2,2013-10-29 04:11:00,
2013-10-29 00:16:00,36.1,31.7,30.34,WNW,288,0.0,4.0,84,0.00,,,0.00,WUHU216DAVISVP2,2013-10-29 04:16:00,
2013-10-29 00:21:00,36.0,31.6,30.34,West,270,1.0,4.0,84,0.00,,,0.00,WUHU216DAVISVP2,2013-10-29 04:21:00,
2013-10-29 00:26:00,35.9,31.5,30.34,West,270,1.0,4.0,84,0.00,,,0.00,WUHU216DAVISVP2,2013-10-29 04:26:00,
2013-10-29 00:31:00,35.7,31.3,30.34,West,260,0.0,3.0,84,0.00,,,0.00,WUHU216DAVISVP2,2013-10-29 04:31:00,
2013-10-29 00:36:00,35.6,31.5,30.34,West,270,0.0,3.0,85,0.00,,,0.00,WUHU216DAVISVP2,2013-10-29 04:36:00,
2013-10-29 00:41:00,35.6,31.5,30.34,SW,233,2.0,6.0,85,0.00,,,0.00,WUHU216DAVISVP2,2013-10-29 04:41:00,
2013-10-29 00:46:00,35.6,31.5,30.34,West,272,1.0,6.0,85,0.00,,,0.00,WUHU216DAVISVP2,2013-10-29 04:46:00,
2013-10-29 00:51:00,35.6,31.5,30.33,SW,236,0.0,5.0,85,0.00,,,0.00,WUHU216DAVISVP2,2013-10-29 04:51:00,
2013-10-29 00:56:00,35.6,31.5,30.34,West,269,0.0,5.0,85,0.00,,,0.00,WUHU216DAVISVP2,2013-10-29 04:56:00,
2013-10-29 01:01:00,35.4,31.3,30.33,WSW,251,0.0,4.0,85,0.00,,,0.00,WUHU216DAVISVP2,2013-10-29 05:01:00,
2013-10-29 01:06:00,35.3,31.2,30.34,West,271,1.0,3.0,85,0.00,,,0.00,WUHU216DAVISVP2,2013-10-29 05:06:00,
2013-10-29 01:11:00,35.3,31.2,30.34,West,269,0.0,3.0,85,0.00,,,0.00,WUHU216DAVISVP2,2013-10-29 05:11:00,
2013-10-29 01:16:00,35.2,31.4,30.34,West,276,1.0,3.0,86,0.00,,,0.00,WUHU216DAVISVP2,2013-10-29 05:16:00,
2013-10-29 01:21:00,35.2,31.1,30.33,SW,235,1.0,3.0,85,0.00,,,0.00,WUHU216DAVISVP2,2013-10-29 05:21:00,
2013-10-29 01:26:00,35.2,31.1,30.34,West,262,0.0,3.0,85,0.00,,,0.00,WUHU216DAVISVP2,2013-10-29 05:26:00,
2013-10-29 01:31:00,35.3,31.2,30.34,West,274,1.0,3.0,85,0.00,,,0.00,WUHU216DAVISVP2,2013-10-29 05:31:00,
2013-10-29 01:36:00,35.5,31.4,30.34,West,266,2.0,3.0,85,0.00,,,0.00,WUHU216DAVISVP2,2013-10-29 05:36:00,
2013-10-29 01:41:00,35.5,31.1,30.34,West,270,1.0,3.0,84,0.00,,,0.00,WUHU216DAVISVP2,2013-10-29 05:41:00,
2013-10-29 01:46:00,35.6,31.2,30.34,West,269,1.0,3.0,84,0.00,,,0.00,WUHU216DAVISVP2,2013-10-29 05:46:00,
2013-10-29 01:51:00,35.5,31.1,30.34,West,280,2.0,4.0,84,0.00,,,0.00,WUHU216DAVISVP2,2013-10-29 05:51:00,
2013-10-29 01:56:00,35.5,31.1,30.34,West,264,2.0,4.0,84,0.00,,,0.00,WUHU216DAVISVP2,2013-10-29 05:56:00,
2013-10-29 02:01:00,35.4,31.0,30.34,West,278,1.0,4.0,84,0.00,,,0.00,WUHU216DAVISVP2,2013-10-29 06:01:00,
2013-10-29 02:07:00,35.4,30.7,30.34,West,274,1.0,4.0,83,0.00,,,0.00,WUHU216DAVISVP2,2013-10-29 06:07:00,
2013-10-29 02:12:00,35.3,30.6,30.34,West,276,2.0,4.0,83,0.00,,,0.00,WUHU216DAVISVP2,2013-10-29 06:12:00,
2013-10-29 02:17:00,35.4,30.4,30.34,WNW,288,2.0,4.0,82,0.00,,,0.00,WUHU216DAVISVP2,2013-10-29 06:17:00,
2013-10-29 02:22:00,35.4,30.4,30.34,WSW,246,1.0,4.0,82,0.00,,,0.00,WUHU216DAVISVP2,2013-10-29 06:22:00,
2013-10-29 02:27:00,35.3,30.4,30.34,WSW,255,1.0,4.0,82,0.00,,,0.00,WUHU216DAVISVP2,2013-10-29 06:27:00,
2013-10-29 02:32:00,35.3,30.7,30.35,West,263,1.0,4.0,83,0.00,,,0.00,WUHU216DAVISVP2,2013-10-29 06:32:00,
2013-10-29 02:37:00,35.3,30.7,30.35,West,273,3.0,4.0,83,0.00,,,0.00,WUHU216DAVISVP2,2013-10-29 06:37:00,
2013-10-29 02:42:00,35.3,30.6,30.34,West,263,3.0,4.0,83,0.00,,,0.00,WUHU216DAVISVP2,2013-10-29 06:42:00,
2013-10-29 02:47:00,35.3,30.6,30.35,West,267,2.0,5.0,83,0.00,,,0.00,WUHU216DAVISVP2,2013-10-29 06:47:00,
2013-10-29 02:52:00,35.4,30.4,30.35,SW,233,2.0,6.0,82,0.00,,,0.00,WUHU216DAVISVP2,2013-10-29 06:52:00,
2013-10-29 02:57:00,35.4,30.4,30.35,West,276,1.0,6.0,82,0.00,,,0.00,WUHU216DAVISVP2,2013-10-29 06:57:00,
2013-10-29 03:02:00,35.3,30.4,30.34,WSW,256,1.0,6.0,82,0.00,,,0.00,WUHU216DAVISVP2,2013-10-29 07:02:00,
2013-10-29 03:07:00,35.4,30.5,30.35,West,276,2.0,6.0,82,0.00,,,0.00,WUHU216DAVISVP2,2013-10-29 07:07:00,
2013-10-29 03:12:00,35.4,30.1,30.35,West,274,2.0,5.0,81,0.00,,,0.00,WUHU216DAVISVP2,2013-10-29 07:12:00,
2013-10-29 03:17:00,35.5,30.3,30.35,West,262,3.0,4.0,81,0.00,,,0.00,WUHU216DAVISVP2,2013-10-29 07:17:00,
2013-10-29 03:22:00,35.5,30.3,30.35,West,276,1.0,6.0,81,0.00,,,0.00,WUHU216DAVISVP2,2013-10-29 07:22:00,
2013-10-29 03:27:00,35.5,30.3,30.35,West,266,0.0,6.0,81,0.00,,,0.00,WUHU216DAVISVP2,2013-10-29 07:27:00,
2013-10-29 03:32:00,35.5,30.3,30.35,West,269,2.0,6.0,81,0.00,,,0.00,WUHU216DAVISVP2,2013-10-29 07:32:00,
2013-10-29 03:37:00,35.5,30.3,30.35,West,267,4.0,6.0,81,0.00,,,0.00,WUHU216DAVISVP2,2013-10-29 07:37:00,
2013-10-29 03:42:00,35.5,30.5,30.35,WSW,256,3.0,5.0,82,0.00,,,0.00,WUHU216DAVISVP2,2013-10-29 07:42:00,
2013-10-29 03:47:00,35.4,30.4,30.35,West,264,1.0,5.0,82,0.00,,,0.00,WUHU216DAVISVP2,2013-10-29 07:47:00,
2013-10-29 03:52:00,35.4,30.7,30.35,West,264,1.0,5.0,83,0.00,,,0.00,WUHU216DAVISVP2,2013-10-29 07:52:00,
2013-10-29 03:57:00,35.3,30.6,30.35,West,266,2.0,5.0,83,0.00,,,0.00,WUHU216DAVISVP2,2013-10-29 07:57:00,
2013-10-29 04:02:00,35.3,30.6,30.35,WSW,253,1.0,5.0,83,0.00,,,0.00,WUHU216DAVISVP2,2013-10-29 08:02:00,
2013-10-29 04:07:00,35.3,30.6,30.35,WSW,242,1.0,5.0,83,0.00,,,0.00,WUHU216DAVISVP2,2013-10-29 08:07:00,
2013-10-29 04:12:00,35.3,30.6,30.35,West,271,1.0,5.0,83,0.00,,,0.00,WUHU216DAVISVP2,2013-10-29 08:12:00,
2013-10-29 04:17:00,35.3,30.6,30.35,West,272,2.0,6.0,83,0.00,,,0.00,WUHU216DAVISVP2,2013-10-29 08:17:00,
2013-10-29 04:22:00,35.2,30.5,30.35,West,281,0.0,6.0,83,0.00,,,0.00,WUHU216DAVISVP2,2013-10-29 08:22:00,
2013-10-29 04:27:00,35.1,30.4,30.35,West,270,1.0,6.0,83,0.00,,,0.00,WUHU216DAVISVP2,2013-10-29 08:27:00,
2013-10-29 04:32:00,35.1,30.4,30.35,SW,225,3.0,5.0,83,0.00,,,0.00,WUHU216DAVISVP2,2013-10-29 08:32:00,
2013-10-29 04:37:00,35.1,30.4,30.35,SW,226,1.0,5.0,83,0.00,,,0.00,WUHU216DAVISVP2,2013-10-29 08:37:00,
2013-10-29 04:42:00,35.1,30.4,30.35,SW,236,0.0,5.0,83,0.00,,,0.00,WUHU216DAVISVP2,2013-10-29 08:42:00,
2013-10-29 04:47:00,35.0,30.3,30.35,West,271,1.0,5.0,83,0.00,,,0.00,WUHU216DAVISVP2,2013-10-29 08:47:00,
2013-10-29 04:52:00,35.0,30.6,30.35,WSW,257,1.0,4.0,84,0.00,,,0.00,WUHU216DAVISVP2,2013-10-29 08:52:00,
2013-10-29 04:57:00,35.0,30.3,30.35,West,278,1.0,4.0,83,0.00,,,0.00,WUHU216DAVISVP2,2013-10-29 08:57:00,
2013-10-29 05:02:00,35.0,30.3,30.35,West,270,1.0,4.0,83,0.00,,,0.00,WUHU216DAVISVP2,2013-10-29 09:02:00,
2013-10-29 05:07:00,35.0,30.3,30.35,West,263,1.0,5.0,83,0.00,,,0.00,WUHU216DAVISVP2,2013-10-29 09:07:00,
2013-10-29 05:12:00,34.9,30.3,30.35,West,266,1.0,5.0,83,0.00,,,0.00,WUHU216DAVISVP2,2013-10-29 09:12:00,
2013-10-29 05:17:00,34.9,30.3,30.35,WSW,252,0.0,5.0,83,0.00,,,0.00,WUHU216DAVISVP2,2013-10-29 09:17:00,
2013-10-29 05:22:00,34.9,30.3,30.35,NW,313,3.0,5.0,83,0.00,,,0.00,WUHU216DAVISVP2,2013-10-29 09:22:00,
2013-10-29 05:27:00,34.9,30.3,30.35,WNW,284,1.0,4.0,83,0.00,,,0.00,WUHU216DAVISVP2,2013-10-29 09:27:00,
2013-10-29 05:32:00,34.9,30.3,30.35,West,281,2.0,5.0,83,0.00,,,0.00,WUHU216DAVISVP2,2013-10-29 09:32:00,
2013-10-29 05:37:00,34.9,30.3,30.35,WNW,288,0.0,5.0,83,0.00,,,0.00,WUHU216DAVISVP2,2013-10-29 09:37:00,
2013-10-29 05:42:00,34.9,30.3,30.35,West,273,1.0,5.0,83,0.00,,,0.00,WUHU216DAVISVP2,2013-10-29 09:42:00,
2013-10-29 05:47:00,34.9,30.3,30.35,West,270,0.0,5.0,83,0.00,,,0.00,WUHU216DAVISVP2,2013-10-29 09:47:00,
2013-10-29 05:52:00,34.8,30.2,30.35,WSW,256,1.0,4.0,83,0.00,,,0.00,WUHU216DAVISVP2,2013-10-29 09:52:00,
2013-10-29 05:57:00,34.9,30.3,30.35,West,278,1.0,4.0,83,0.00,,,0.00,WUHU216DAVISVP2,2013-10-29 09:57:00,
2013-10-29 06:02:00,34.9,30.3,30.35,West,266,1.0,4.0,83,0.00,,,0.00,WUHU216DAVISVP2,2013-10-29 10:02:00,
2013-10-29 06:07:00,34.9,30.3,30.35,West,266,0.0,4.0,83,0.00,,,0.00,WUHU216DAVISVP2,2013-10-29 10:07:00,
2013-10-29 06:12:00,34.9,30.3,30.35,West,271,0.0,4.0,83,0.00,,,0.00,WUHU216DAVISVP2,2013-10-29 10:12:00,
2013-10-29 06:17:00,34.8,30.2,30.35,West,264,1.0,5.0,83,0.00,,,0.00,WUHU216DAVISVP2,2013-10-29 10:17:00,
2013-10-29 06:22:00,34.8,30.2,30.35,West,263,1.0,5.0,83,0.00,,,0.00,WUHU216DAVISVP2,2013-10-29 10:22:00,
2013-10-29 06:27:00,34.8,29.9,30.35,West,280,1.0,6.0,82,0.00,,,0.00,WUHU216DAVISVP2,2013-10-29 10:27:00,
2013-10-29 06:32:00,34.8,29.9,30.35,West,277,3.0,6.0,82,0.00,,,0.00,WUHU216DAVISVP2,2013-10-29 10:32:00,
2013-10-29 06:37:00,34.7,30.1,30.36,WNW,287,2.0,5.0,83,0.00,,,0.00,WUHU216DAVISVP2,2013-10-29 10:37:00,
2013-10-29 06:42:00,34.7,30.1,30.36,WSW,255,0.0,5.0,83,0.00,,,0.00,WUHU216DAVISVP2,2013-10-29 10:42:00,
2013-10-29 06:47:00,34.7,30.1,30.36,WSW,249,0.0,3.0,83,0.00,,,0.00,WUHU216DAVISVP2,2013-10-29 10:47:00,
2013-10-29 06:52:00,34.7,30.1,30.36,West,278,1.0,4.0,83,0.00,,,0.00,WUHU216DAVISVP2,2013-10-29 10:52:00,
2013-10-29 06:57:00,34.7,30.1,30.35,West,274,4.0,4.0,83,0.00,,,0.00,WUHU216DAVISVP2,2013-10-29 10:57:00,
2013-10-29 07:02:00,34.7,30.1,30.35,West,269,1.0,7.0,83,0.00,,,0.00,WUHU216DAVISVP2,2013-10-29 11:02:00,
2013-10-29 07:07:00,34.6,30.0,30.35,West,274,1.0,7.0,83,0.00,,,0.00,WUHU216DAVISVP2,2013-10-29 11:07:00,
2013-10-29 07:12:00,34.6,29.7,30.35,West,262,1.0,6.0,82,0.00,,,0.00,WUHU216DAVISVP2,2013-10-29 11:12:00,
2013-10-29 07:17:00,34.6,30.0,30.35,NW,304,1.0,6.0,83,0.00,,,0.00,WUHU216DAVISVP2,2013-10-29 11:17:00,
2013-10-29 07:22:00,34.6,30.0,30.35,WNW,287,2.0,5.0,83,0.00,,,0.00,WUHU216DAVISVP2,2013-10-29 11:22:00,
2013-10-29 07:27:00,34.6,29.7,30.35,WNW,282,3.0,5.0,82,0.00,,,0.00,WUHU216DAVISVP2,2013-10-29 11:27:00,
2013-10-29 07:32:00,34.6,30.0,30.34,West,270,1.0,5.0,83,0.00,,,0.00,WUHU216DAVISVP2,2013-10-29 11:32:00,
2013-10-29 07:37:00,34.5,29.6,30.34,West,278,1.0,6.0,82,0.00,,,0.00,WUHU216DAVISVP2,2013-10-29 11:37:00,
2013-10-29 07:42:00,34.5,29.9,30.34,West,266,1.0,6.0,83,0.00,,,0.00,WUHU216DAVISVP2,2013-10-29 11:42:00,
2013-10-29 07:47:00,34.5,29.9,30.34,WNW,285,1.0,5.0,83,0.00,,,0.00,WUHU216DAVISVP2,2013-10-29 11:47:00,
2013-10-29 07:52:00,34.5,29.6,30.34,West,266,1.0,6.0,82,0.00,,,0.00,WUHU216DAVISVP2,2013-10-29 11:52:00,
2013-10-29 07:57:00,34.5,29.6,30.34,SW,233,1.0,6.0,82,0.00,,,0.00,WUHU216DAVISVP2,2013-10-29 11:57:00,
2013-10-29 08:02:00,34.5,29.6,30.34,West,261,1.0,5.0,82,0.00,,,0.00,WUHU216DAVISVP2,2013-10-29 12:02:00,
2013-10-29 08:07:00,34.5,29.6,30.34,West,259,1.0,5.0,82,0.00,,,0.00,WUHU216DAVISVP2,2013-10-29 12:07:00,
2013-10-29 08:12:00,34.5,29.6,30.34,WNW,291,1.0,4.0,82,0.00,,,0.00,WUHU216DAVISVP2,2013-10-29 12:12:00,
2013-10-29 08:17:00,34.6,29.7,30.34,West,269,5.0,5.0,82,0.00,,,0.00,WUHU216DAVISVP2,2013-10-29 12:17:00,
2013-10-29 08:22:00,34.6,29.7,30.35,West,269,1.0,6.0,82,0.00,,,0.00,WUHU216DAVISVP2,2013-10-29 12:22:00,
2013-10-29 08:27:00,34.6,29.7,30.35,West,264,1.0,6.0,82,0.00,,,0.00,WUHU216DAVISVP2,2013-10-29 12:27:00,
2013-10-29 08:32:00,34.7,29.8,30.35,West,267,1.0,6.0,82,0.00,,,0.00,WUHU216DAVISVP2,2013-10-29 12:32:00,
2013-10-29 08:37:00,34.7,29.8,30.35,WSW,257,1.0,4.0,82,0.00,,,0.00,WUHU216DAVISVP2,2013-10-29 12:37:00,
2013-10-29 08:42:00,34.7,29.8,30.35,WNW,285,0.0,5.0,82,0.00,,,0.00,WUHU216DAVISVP2,2013-10-29 12:42:00,
2013-10-29 08:47:00,34.7,29.8,30.35,WSW,250,1.0,5.0,82,0.00,,,0.00,WUHU216DAVISVP2,2013-10-29 12:47:00,
2013-10-29 08:52:00,34.7,29.8,30.36,West,264,0.0,5.0,82,0.00,,,0.00,WUHU216DAVISVP2,2013-10-29 12:52:00,
2013-10-29 08:57:00,34.8,29.9,30.35,West,276,1.0,5.0,82,0.00,,,0.00,WUHU216DAVISVP2,2013-10-29 12:57:00,
2013-10-29 09:02:00,34.8,29.9,30.36,WSW,252,0.0,4.0,82,0.00,,,0.00,WUHU216DAVISVP2,2013-10-29 13:02:00,
2013-10-29 09:07:00,34.9,30.0,30.35,West,276,3.0,3.0,82,0.00,,,0.00,WUHU216DAVISVP2,2013-10-29 13:07:00,
2013-10-29 09:12:00,34.9,30.0,30.35,WSW,246,0.0,3.0,82,0.00,,,0.00,WUHU216DAVISVP2,2013-10-29 13:12:00,
2013-10-29 09:17:00,34.9,30.0,30.35,SSW,212,0.0,3.0,82,0.00,,,0.00,WUHU216DAVISVP2,2013-10-29 13:17:00,
2013-10-29 09:22:00,35.0,30.1,30.36,West,267,1.0,3.0,82,0.00,,,0.00,WUHU216DAVISVP2,2013-10-29 13:22:00,
2013-10-29 09:27:00,35.1,30.2,30.36,West,269,0.0,3.0,82,0.00,,,0.00,WUHU216DAVISVP2,2013-10-29 13:27:00,
2013-10-29 09:32:00,35.2,30.3,30.36,WNW,288,1.0,3.0,82,0.00,,,0.00,WUHU216DAVISVP2,2013-10-29 13:32:00,
2013-10-29 09:37:00,35.3,30.1,30.37,West,270,0.0,3.0,81,0.00,,,0.00,WUHU216DAVISVP2,2013-10-29 13:37:00,
2013-10-29 09:42:00,35.4,30.4,30.37,WSW,246,0.0,3.0,82,0.00,,,0.00,WUHU216DAVISVP2,2013-10-29 13:42:00,
2013-10-29 09:47:00,35.4,30.2,30.37,West,261,1.0,4.0,81,0.00,,,0.00,WUHU216DAVISVP2,2013-10-29 13:47:00,
2013-10-29 09:52:00,35.4,30.2,30.37,West,266,1.0,4.0,81,0.00,,,0.00,WUHU216DAVISVP2,2013-10-29 13:52:00,
2013-10-29 09:57:00,35.5,30.3,30.37,WNW,290,1.0,5.0,81,0.00,,,0.00,WUHU216DAVISVP2,2013-10-29 13:57:00,
2013-10-29 10:02:00,35.5,30.0,30.37,West,281,4.0,5.0,80,0.00,,,0.00,WUHU216DAVISVP2,2013-10-29 14:02:00,
2013-10-29 10:07:00,35.6,30.1,30.37,WNW,295,4.0,6.0,80,0.00,,,0.00,WUHU216DAVISVP2,2013-10-29 14:07:00,
2013-10-29 10:12:00,35.6,29.7,30.37,WSW,257,0.0,6.0,79,0.00,,,0.00,WUHU216DAVISVP2,2013-10-29 14:12:00,
2013-10-29 10:17:00,35.6,29.7,30.36,West,259,1.0,5.0,79,0.00,,,0.00,WUHU216DAVISVP2,2013-10-29 14:17:00,
2013-10-29 10:22:00,35.6,29.7,30.37,WSW,250,2.0,5.0,79,0.00,,,0.00,WUHU216DAVISVP2,2013-10-29 14:22:00,
2013-10-29 10:27:00,35.7,29.8,30.37,West,266,1.0,5.0,79,0.00,,,0.00,WUHU216DAVISVP2,2013-10-29 14:27:00,
2013-10-29 10:32:00,35.7,29.8,30.37,WSW,256,1.0,5.0,79,0.00,,,0.00,WUHU216DAVISVP2,2013-10-29 14:32:00,
2013-10-29 10:37:00,35.8,29.9,30.36,WSW,257,1.0,5.0,79,0.00,,,0.00,WUHU216DAVISVP2,2013-10-29 14:37:00,
2013-10-29 10:42:00,35.9,30.0,30.36,West,271,1.0,5.0,79,0.00,,,0.00,WUHU216DAVISVP2,2013-10-29 14:42:00,
2013-10-29 10:47:00,35.9,30.0,30.36,West,270,2.0,5.0,79,0.00,,,0.00,WUHU216DAVISVP2,2013-10-29 14:47:00,
2013-10-29 10:52:00,36.0,30.1,30.36,WNW,282,2.0,5.0,79,0.00,,,0.00,WUHU216DAVISVP2,2013-10-29 14:52:00,
2013-10-29 10:57:00,36.0,30.1,30.36,West,263,3.0,5.0,79,0.00,,,0.00,WUHU216DAVISVP2,2013-10-29 14:57:00,
2013-10-29 11:02:00,36.0,30.1,30.36,West,270,0.0,5.0,79,0.00,,,0.00,WUHU216DAVISVP2,2013-10-29 15:02:00,
2013-10-29 11:07:00,36.0,29.8,30.36,West,278,1.0,5.0,78,0.00,,,0.00,WUHU216DAVISVP2,2013-10-29 15:07:00,
2013-10-29 11:12:00,36.1,30.2,30.36,WSW,243,2.0,5.0,79,0.00,,,0.00,WUHU216DAVISVP2,2013-10-29 15:12:00,
2013-10-29 11:17:00,36.1,30.2,30.36,WNW,301,2.0,5.0,79,0.00,,,0.00,WUHU216DAVISVP2,2013-10-29 15:17:00,
2013-10-29 11:22:00,36.3,30.4,30.36,WNW,285,0.0,5.0,79,0.00,,,0.00,WUHU216DAVISVP2,2013-10-29 15:22:00,
2013-10-29 11:27:00,36.4,30.5,30.36,WNW,288,1.0,5.0,79,0.00,,,0.00,WUHU216DAVISVP2,2013-10-29 15:27:00,
2013-10-29 11:32:00,36.5,30.6,30.35,West,270,1.0,5.0,79,0.00,,,0.00,WUHU216DAVISVP2,2013-10-29 15:32:00,
2013-10-29 11:37:00,36.6,30.7,30.35,West,262,2.0,5.0,79,0.00,,,0.00,WUHU216DAVISVP2,2013-10-29 15:37:00,
2013-10-29 11:42:00,36.8,30.6,30.35,NW,312,3.0,6.0,78,0.00,,,0.00,WUHU216DAVISVP2,2013-10-29 15:42:00,
2013-10-29 11:47:00,36.9,30.7,30.34,WNW,290,2.0,7.0,78,0.00,,,0.00,WUHU216DAVISVP2,2013-10-29 15:47:00,
2013-10-29 11:52:00,37.2,31.0,30.34,WNW,300,4.0,7.0,78,0.00,,,0.00,WUHU216DAVISVP2,2013-10-29 15:52:00,
2013-10-29 11:57:00,37.5,31.3,30.34,SW,228,2.0,7.0,78,0.00,,,0.00,WUHU216DAVISVP2,2013-10-29 15:57:00,
2013-10-29 12:02:00,37.6,30.8,30.34,NW,305,8.0,8.0,76,0.00,,,0.00,WUHU216DAVISVP2,2013-10-29 16:02:00,
2013-10-29 12:07:00,38.1,31.2,30.33,West,274,2.0,9.0,76,0.00,,,0.00,WUHU216DAVISVP2,2013-10-29 16:07:00,
2013-10-29 12:12:00,38.8,31.9,30.33,WNW,284,4.0,9.0,76,0.00,,,0.00,WUHU216DAVISVP2,2013-10-29 16:12:00,
2013-10-29 12:17:00,39.1,31.6,30.33,West,270,3.0,9.0,74,0.00,,,0.00,WUHU216DAVISVP2,2013-10-29 16:17:00,
2013-10-29 12:22:00,39.2,32.0,30.33,WNW,287,1.0,9.0,75,0.00,,,0.00,WUHU216DAVISVP2,2013-10-29 16:22:00,
2013-10-29 12:27:00,39.8,32.2,30.33,WSW,256,0.0,8.0,74,0.00,,,0.00,WUHU216DAVISVP2,2013-10-29 16:27:00,
2013-10-29 12:32:00,40.4,32.5,30.33,SSW,211,4.0,8.0,73,0.00,,,0.00,WUHU216DAVISVP2,2013-10-29 16:32:00,
2013-10-29 12:37:00,40.8,33.2,30.33,WNW,284,3.0,8.0,74,0.00,,,0.00,WUHU216DAVISVP2,2013-10-29 16:37:00,
2013-10-29 12:42:00,41.1,32.8,30.32,West,273,1.0,8.0,72,0.00,,,0.00,WUHU216DAVISVP2,2013-10-29 16:42:00,
2013-10-29 12:47:00,41.0,32.7,30.32,WNW,288,4.0,10.0,72,0.00,,,0.00,WUHU216DAVISVP2,2013-10-29 16:47:00,
2013-10-29 12:52:00,41.0,32.4,30.32,WNW,284,3.0,10.0,71,0.00,,,0.00,WUHU216DAVISVP2,2013-10-29 16:52:00,
2013-10-29 12:57:00,40.8,32.2,30.32,WNW,292,3.0,10.0,71,0.00,,,0.00,WUHU216DAVISVP2,2013-10-29 16:57:00,
2013-10-29 13:02:00,40.8,32.2,30.32,WNW,298,1.0,11.0,71,0.00,,,0.00,WUHU216DAVISVP2,2013-10-29 17:02:00,
2013-10-29 13:07:00,41.0,32.7,30.32,West,262,2.0,11.0,72,0.00,,,0.00,WUHU216DAVISVP2,2013-10-29 17:07:00,
2013-10-29 13:12:00,41.2,32.9,30.31,West,270,1.0,11.0,72,0.00,,,0.00,WUHU216DAVISVP2,2013-10-29 17:12:00,
2013-10-29 13:17:00,41.3,33.0,30.31,WNW,284,2.0,11.0,72,0.00,,,0.00,WUHU216DAVISVP2,2013-10-29 17:17:00,
2013-10-29 13:22:00,41.6,33.2,30.30,WNW,284,3.0,10.0,72,0.00,,,0.00,WUHU216DAVISVP2,2013-10-29 17:22:00,
2013-10-29 13:27:00,42.2,33.9,30.30,West,271,2.0,10.0,72,0.00,,,0.00,WUHU216DAVISVP2,2013-10-29 17:27:00,
2013-10-29 13:32:00,42.4,33.4,30.30,WNW,300,6.0,10.0,70,0.00,,,0.00,WUHU216DAVISVP2,2013-10-29 17:32:00,
2013-10-29 13:37:00,42.3,33.3,30.30,NW,306,3.0,10.0,70,0.00,,,0.00,WUHU216DAVISVP2,2013-10-29 17:37:00,
2013-10-29 13:42:00,42.6,33.6,30.30,West,278,2.0,10.0,70,0.00,,,0.00,WUHU216DAVISVP2,2013-10-29 17:42:00,
2013-10-29 13:47:00,42.7,33.2,30.30,NNW,327,6.0,10.0,69,0.00,,,0.00,WUHU216DAVISVP2,2013-10-29 17:47:00,
2013-10-29 13:52:00,42.8,33.8,30.29,WNW,300,2.0,9.0,70,0.00,,,0.00,WUHU216DAVISVP2,2013-10-29 17:52:00,
2013-10-29 13:57:00,43.0,34.0,30.28,WNW,303,3.0,9.0,70,0.00,,,0.00,WUHU216DAVISVP2,2013-10-29 17:57:00,
2013-10-29 14:02:00,42.7,33.7,30.28,NW,309,3.0,9.0,70,0.00,,,0.00,WUHU216DAVISVP2,2013-10-29 18:02:00,
2013-10-29 14:07:00,42.6,33.9,30.28,WNW,291,1.0,7.0,71,0.00,,,0.00,WUHU216DAVISVP2,2013-10-29 18:07:00,
2013-10-29 14:12:00,42.7,34.4,30.28,WNW,302,5.0,7.0,72,0.00,,,0.00,WUHU216DAVISVP2,2013-10-29 18:12:00,
2013-10-29 14:17:00,42.4,33.7,30.28,NW,316,4.0,8.0,71,0.00,,,0.00,WUHU216DAVISVP2,2013-10-29 18:17:00,
2013-10-29 14:22:00,42.3,34.0,30.28,WNW,301,1.0,8.0,72,0.00,,,0.00,WUHU216DAVISVP2,2013-10-29 18:22:00,
2013-10-29 14:27:00,42.7,34.4,30.28,West,266,2.0,8.0,72,0.00,,,0.00,WUHU216DAVISVP2,2013-10-29 18:27:00,
2013-10-29 14:32:00,42.8,34.5,30.27,WNW,293,3.0,8.0,72,0.00,,,0.00,WUHU216DAVISVP2,2013-10-29 18:32:00,
2013-10-29 14:37:00,42.9,34.6,30.27,West,262,1.0,7.0,72,0.00,,,0.00,WUHU216DAVISVP2,2013-10-29 18:37:00,
2013-10-29 14:42:00,43.1,34.8,30.27,West,262,2.0,5.0,72,0.00,,,0.00,WUHU216DAVISVP2,2013-10-29 18:42:00,
2013-10-29 14:47:00,43.3,35.0,30.26,WSW,246,1.0,4.0,72,0.00,,,0.00,WUHU216DAVISVP2,2013-10-29 18:47:00,
2013-10-29 14:52:00,43.3,34.6,30.26,WNW,295,2.0,5.0,71,0.00,,,0.00,WUHU216DAVISVP2,2013-10-29 18:52:00,
2013-10-29 14:57:00,43.3,34.6,30.26,West,264,0.0,5.0,71,0.00,,,0.00,WUHU216DAVISVP2,2013-10-29 18:57:00,
2013-10-29 15:02:00,43.3,35.0,30.26,West,280,2.0,6.0,72,0.00,,,0.00,WUHU216DAVISVP2,2013-10-29 19:02:00,
2013-10-29 15:07:00,43.6,35.2,30.25,WNW,301,3.0,6.0,72,0.00,,,0.00,WUHU216DAVISVP2,2013-10-29 19:07:00,
2013-10-29 15:12:00,43.7,35.0,30.25,West,259,1.0,6.0,71,0.00,,,0.00,WUHU216DAVISVP2,2013-10-29 19:12:00,
2013-10-29 15:17:00,44.0,35.3,30.25,West,277,2.0,6.0,71,0.00,,,0.00,WUHU216DAVISVP2,2013-10-29 19:17:00,
2013-10-29 15:22:00,43.9,34.8,30.25,West,259,3.0,6.0,70,0.00,,,0.00,WUHU216DAVISVP2,2013-10-29 19:22:00,
2013-10-29 15:27:00,43.8,35.1,30.25,West,273,5.0,7.0,71,0.00,,,0.00,WUHU216DAVISVP2,2013-10-29 19:27:00,
2013-10-29 15:32:00,44.0,35.3,30.25,West,278,2.0,7.0,71,0.00,,,0.00,WUHU216DAVISVP2,2013-10-29 19:32:00,
2013-10-29 15:37:00,44.0,34.8,30.24,West,260,2.0,7.0,70,0.00,,,0.00,WUHU216DAVISVP2,2013-10-29 19:37:00,
2013-10-29 15:42:00,44.0,34.8,30.24,West,274,5.0,7.0,70,0.00,,,0.00,WUHU216DAVISVP2,2013-10-29 19:42:00,
2013-10-29 15:47:00,43.9,35.1,30.24,WSW,246,1.0,7.0,71,0.00,,,0.00,WUHU216DAVISVP2,2013-10-29 19:47:00,
2013-10-29 15:52:00,43.8,35.1,30.24,NW,325,1.0,8.0,71,0.00,,,0.00,WUHU216DAVISVP2,2013-10-29 19:52:00,
2013-10-29 15:57:00,43.9,35.2,30.24,WSW,254,3.0,8.0,71,0.00,,,0.00,WUHU216DAVISVP2,2013-10-29 19:57:00,
2013-10-29 16:02:00,43.7,35.0,30.24,WNW,291,6.0,7.0,71,0.00,,,0.00,WUHU216DAVISVP2,2013-10-29 20:02:00,
2013-10-29 16:07:00,43.6,35.2,30.24,West,264,2.0,8.0,72,0.00,,,0.00,WUHU216DAVISVP2,2013-10-29 20:07:00,
2013-10-29 16:12:00,43.6,35.2,30.25,West,264,0.0,8.0,72,0.00,,,0.00,WUHU216DAVISVP2,2013-10-29 20:12:00,
2013-10-29 16:17:00,43.5,35.1,30.25,West,262,1.0,8.0,72,0.00,,,0.00,WUHU216DAVISVP2,2013-10-29 20:17:00,
2013-10-29 16:22:00,43.5,35.1,30.25,WSW,253,2.0,7.0,72,0.00,,,0.00,WUHU216DAVISVP2,2013-10-29 20:22:00,
2013-10-29 16:27:00,43.5,35.1,30.25,West,270,1.0,6.0,72,0.00,,,0.00,WUHU216DAVISVP2,2013-10-29 20:27:00,
2013-10-29 16:32:00,43.3,35.0,30.24,WNW,284,2.0,6.0,72,0.00,,,0.00,WUHU216DAVISVP2,2013-10-29 20:32:00,
2013-10-29 16:37:00,43.2,34.9,30.24,West,273,2.0,6.0,72,0.00,,,0.00,WUHU216DAVISVP2,2013-10-29 20:37:00,
2013-10-29 16:42:00,43.2,34.9,30.24,West,276,3.0,7.0,72,0.00,,,0.00,WUHU216DAVISVP2,2013-10-29 20:42:00,
2013-10-29 16:47:00,43.2,35.1,30.24,West,281,1.0,7.0,73,0.00,,,0.00,WUHU216DAVISVP2,2013-10-29 20:47:00,
2013-10-29 16:52:00,43.4,35.4,30.25,West,273,2.0,6.0,73,0.00,,,0.00,WUHU216DAVISVP2,2013-10-29 20:52:00,
2013-10-29 16:57:00,43.3,35.3,30.24,WNW,283,2.0,6.0,73,0.00,,,0.00,WUHU216DAVISVP2,2013-10-29 20:57:00,
2013-10-29 17:03:00,43.2,35.2,30.24,West,271,1.0,5.0,73,0.00,,,0.00,WUHU216DAVISVP2,2013-10-29 21:03:00,
2013-10-29 17:08:00,43.0,34.7,30.23,SW,233,2.0,7.0,72,0.00,,,0.00,WUHU216DAVISVP2,2013-10-29 21:08:00,
2013-10-29 17:13:00,42.9,34.9,30.23,West,267,2.0,7.0,73,0.00,,,0.00,WUHU216DAVISVP2,2013-10-29 21:13:00,
2013-10-29 17:18:00,42.9,35.2,30.23,West,264,3.0,6.0,74,0.00,,,0.00,WUHU216DAVISVP2,2013-10-29 21:18:00,
2013-10-29 17:23:00,42.9,35.2,30.23,NW,310,0.0,6.0,74,0.00,,,0.00,WUHU216DAVISVP2,2013-10-29 21:23:00,
2013-10-29 17:28:00,42.8,35.2,30.23,West,270,3.0,6.0,74,0.00,,,0.00,WUHU216DAVISVP2,2013-10-29 21:28:00,
2013-10-29 17:33:00,42.7,35.1,30.23,WSW,243,3.0,7.0,74,0.00,,,0.00,WUHU216DAVISVP2,2013-10-29 21:33:00,
2013-10-29 17:38:00,42.7,35.1,30.23,West,274,2.0,7.0,74,0.00,,,0.00,WUHU216DAVISVP2,2013-10-29 21:38:00,
2013-10-29 17:43:00,42.6,35.0,30.23,West,278,1.0,7.0,74,0.00,,,0.00,WUHU216DAVISVP2,2013-10-29 21:43:00,
2013-10-29 17:48:00,42.5,34.9,30.23,NW,321,3.0,7.0,74,0.00,,,0.00,WUHU216DAVISVP2,2013-10-29 21:48:00,
2013-10-29 17:53:00,42.4,34.8,30.23,WSW,249,0.0,8.0,74,0.00,,,0.00,WUHU216DAVISVP2,2013-10-29 21:53:00,
2013-10-29 17:58:00,42.3,35.0,30.23,WNW,301,2.0,8.0,75,0.00,,,0.00,WUHU216DAVISVP2,2013-10-29 21:58:00,
2013-10-29 18:03:00,42.3,34.9,30.23,West,263,2.0,8.0,75,0.00,,,0.00,WUHU216DAVISVP2,2013-10-29 22:03:00,
2013-10-29 18:08:00,42.2,34.9,30.22,WSW,250,1.0,8.0,75,0.00,,,0.00,WUHU216DAVISVP2,2013-10-29 22:08:00,
2013-10-29 18:13:00,42.2,34.9,30.23,WNW,291,1.0,4.0,75,0.00,,,0.00,WUHU216DAVISVP2,2013-10-29 22:13:00,
2013-10-29 18:18:00,42.1,35.1,30.22,West,263,1.0,4.0,76,0.00,,,0.00,WUHU216DAVISVP2,2013-10-29 22:18:00,
2013-10-29 18:23:00,41.9,34.9,30.22,SW,235,1.0,5.0,76,0.00,,,0.00,WUHU216DAVISVP2,2013-10-29 22:23:00,
2013-10-29 18:28:00,41.7,34.7,30.22,WSW,248,0.0,5.0,76,0.00,,,0.00,WUHU216DAVISVP2,2013-10-29 22:28:00,
2013-10-29 18:33:00,41.6,34.6,30.22,West,260,1.0,5.0,76,0.00,,,0.00,WUHU216DAVISVP2,2013-10-29 22:33:00,
2013-10-29 18:38:00,41.4,34.7,30.22,SW,220,1.0,5.0,77,0.00,,,0.00,WUHU216DAVISVP2,2013-10-29 22:38:00,
2013-10-29 18:43:00,41.2,34.6,30.21,WSW,255,2.0,6.0,77,0.00,,,0.00,WUHU216DAVISVP2,2013-10-29 22:43:00,
2013-10-29 18:48:00,41.1,34.5,30.22,WSW,246,2.0,6.0,77,0.00,,,0.00,WUHU216DAVISVP2,2013-10-29 22:48:00,
2013-10-29 18:53:00,41.0,34.7,30.22,WSW,246,1.0,6.0,78,0.00,,,0.00,WUHU216DAVISVP2,2013-10-29 22:53:00,
2013-10-29 18:58:00,40.8,34.5,30.22,WSW,248,0.0,5.0,78,0.00,,,0.00,WUHU216DAVISVP2,2013-10-29 22:58:00,
2013-10-29 19:03:00,40.7,34.4,30.22,WNW,282,2.0,5.0,78,0.00,,,0.00,WUHU216DAVISVP2,2013-10-29 23:03:00,
2013-10-29 19:08:00,40.6,34.3,30.22,West,276,2.0,6.0,78,0.00,,,0.00,WUHU216DAVISVP2,2013-10-29 23:08:00,
2013-10-29 19:13:00,40.5,34.2,30.22,WSW,251,0.0,6.0,78,0.00,,,0.00,WUHU216DAVISVP2,2013-10-29 23:13:00,
2013-10-29 19:18:00,40.3,34.3,30.22,WSW,255,1.0,6.0,79,0.00,,,0.00,WUHU216DAVISVP2,2013-10-29 23:18:00,
2013-10-29 19:23:00,40.0,34.0,30.22,West,277,2.0,6.0,79,0.00,,,0.00,WUHU216DAVISVP2,2013-10-29 23:23:00,
2013-10-29 19:28:00,39.8,34.1,30.22,SW,222,0.0,6.0,80,0.00,,,0.00,WUHU216DAVISVP2,2013-10-29 23:28:00,
2013-10-29 19:33:00,39.6,33.9,30.22,West,272,0.0,4.0,80,0.00,,,0.00,WUHU216DAVISVP2,2013-10-29 23:33:00,
2013-10-29 19:38:00,39.4,34.1,30.21,WSW,248,1.0,5.0,81,0.00,,,0.00,WUHU216DAVISVP2,2013-10-29 23:38:00,
2013-10-29 19:43:00,39.3,34.0,30.22,WNW,287,1.0,5.0,81,0.00,,,0.00,WUHU216DAVISVP2,2013-10-29 23:43:00,
2013-10-29 19:48:00,39.2,34.2,30.21,West,266,2.0,5.0,82,0.00,,,0.00,WUHU216DAVISVP2,2013-10-29 23:48:00,
2013-10-29 19:53:00,39.2,34.2,30.21,WSW,257,1.0,5.0,82,0.00,,,0.00,WUHU216DAVISVP2,2013-10-29 23:53:00,
2013-10-29 19:58:00,39.3,34.3,30.20,NW,305,2.0,4.0,82,0.00,,,0.00,WUHU216DAVISVP2,2013-10-29 23:58:00,
2013-10-29 20:03:00,39.3,34.3,30.21,West,276,1.0,4.0,82,0.00,,,0.00,WUHU216DAVISVP2,2013-10-30 00:03:00,
2013-10-29 20:08:00,39.3,34.3,30.21,West,266,1.0,4.0,82,0.00,,,0.00,WUHU216DAVISVP2,2013-10-30 00:08:00,
2013-10-29 20:13:00,39.2,34.2,30.20,West,274,2.0,4.0,82,0.00,,,0.00,WUHU216DAVISVP2,2013-10-30 00:13:00,
2013-10-29 20:18:00,39.1,34.1,30.20,West,269,3.0,4.0,82,0.00,,,0.00,WUHU216DAVISVP2,2013-10-30 00:18:00,
2013-10-29 20:23:00,38.9,34.2,30.20,West,270,1.0,4.0,83,0.00,,,0.00,WUHU216DAVISVP2,2013-10-30 00:23:00,
2013-10-29 20:28:00,38.7,34.0,30.20,West,280,0.0,4.0,83,0.00,,,0.00,WUHU216DAVISVP2,2013-10-30 00:28:00,
2013-10-29 20:33:00,38.5,34.1,30.20,SW,228,3.0,4.0,84,0.00,,,0.00,WUHU216DAVISVP2,2013-10-30 00:33:00,
2013-10-29 20:38:00,38.5,34.1,30.21,West,263,1.0,5.0,84,0.00,,,0.00,WUHU216DAVISVP2,2013-10-30 00:38:00,
2013-10-29 20:43:00,38.3,34.2,30.20,WSW,256,1.0,5.0,85,0.00,,,0.00,WUHU216DAVISVP2,2013-10-30 00:43:00,
2013-10-29 20:48:00,38.1,34.0,30.20,WSW,253,2.0,5.0,85,0.00,,,0.00,WUHU216DAVISVP2,2013-10-30 00:48:00,
2013-10-29 20:53:00,38.0,34.2,30.20,WNW,284,1.0,5.0,86,0.00,,,0.00,WUHU216DAVISVP2,2013-10-30 00:53:00,
2013-10-29 20:58:00,37.9,34.1,30.20,West,261,0.0,5.0,86,0.00,,,0.00,WUHU216DAVISVP2,2013-10-30 00:58:00,
2013-10-29 21:03:00,37.7,34.1,30.19,WNW,288,1.0,6.0,87,0.00,,,0.00,WUHU216DAVISVP2,2013-10-30 01:03:00,
2013-10-29 21:08:00,37.5,34.0,30.19,WNW,294,1.0,6.0,87,0.00,,,0.00,WUHU216DAVISVP2,2013-10-30 01:08:00,
2013-10-29 21:13:00,37.4,33.9,30.19,WSW,251,0.0,6.0,87,0.00,,,0.00,WUHU216DAVISVP2,2013-10-30 01:13:00,
2013-10-29 21:18:00,37.2,33.9,30.19,West,281,1.0,6.0,88,0.00,,,0.00,WUHU216DAVISVP2,2013-10-30 01:18:00,
2013-10-29 21:23:00,37.2,33.9,30.19,West,262,2.0,4.0,88,0.00,,,0.00,WUHU216DAVISVP2,2013-10-30 01:23:00,
2013-10-29 21:28:00,37.1,33.8,30.19,West,267,1.0,5.0,88,0.00,,,0.00,WUHU216DAVISVP2,2013-10-30 01:28:00,
2013-10-29 21:33:00,37.1,33.8,30.19,WNW,295,1.0,5.0,88,0.00,,,0.00,WUHU216DAVISVP2,2013-10-30 01:33:00,
2013-10-29 21:38:00,36.9,33.9,30.18,WSW,248,2.0,5.0,89,0.00,,,0.00,WUHU216DAVISVP2,2013-10-30 01:38:00,
2013-10-29 21:43:00,36.8,33.9,30.19,West,266,2.0,5.0,89,0.00,,,0.00,WUHU216DAVISVP2,2013-10-30 01:43:00,
2013-10-29 21:48:00,36.8,33.9,30.18,West,278,2.0,4.0,89,0.00,,,0.00,WUHU216DAVISVP2,2013-10-30 01:48:00,
2013-10-29 21:53:00,36.7,33.7,30.17,West,276,1.0,4.0,89,0.00,,,0.00,WUHU216DAVISVP2,2013-10-30 01:53:00,
2013-10-29 21:58:00,36.7,33.7,30.17,West,274,1.0,5.0,89,0.00,,,0.00,WUHU216DAVISVP2,2013-10-30 01:58:00,
2013-10-29 22:03:00,36.6,33.9,30.17,West,259,0.0,5.0,90,0.00,,,0.00,WUHU216DAVISVP2,2013-10-30 02:03:00,
2013-10-29 22:08:00,36.4,33.7,30.17,West,276,2.0,5.0,90,0.00,,,0.00,WUHU216DAVISVP2,2013-10-30 02:08:00,
2013-10-29 22:13:00,36.3,33.6,30.17,West,276,1.0,5.0,90,0.00,,,0.00,WUHU216DAVISVP2,2013-10-30 02:13:00,
2013-10-29 22:18:00,36.2,33.5,30.17,West,264,1.0,4.0,90,0.00,,,0.00,WUHU216DAVISVP2,2013-10-30 02:18:00,
2013-10-29 22:23:00,36.1,33.4,30.17,West,266,0.0,4.0,90,0.00,,,0.00,WUHU216DAVISVP2,2013-10-30 02:23:00,
2013-10-29 22:28:00,35.9,33.2,30.17,West,270,0.0,4.0,90,0.00,,,0.00,WUHU216DAVISVP2,2013-10-30 02:28:00,
2013-10-29 22:33:00,35.6,33.2,30.17,West,260,1.0,3.0,91,0.00,,,0.00,WUHU216DAVISVP2,2013-10-30 02:33:00,
2013-10-29 22:38:00,35.4,33.0,30.17,West,264,0.0,3.0,91,0.00,,,0.00,WUHU216DAVISVP2,2013-10-30 02:38:00,
2013-10-29 22:43:00,35.3,33.2,30.17,West,262,1.0,2.0,92,0.00,,,0.00,WUHU216DAVISVP2,2013-10-30 02:43:00,
2013-10-29 22:48:00,35.3,33.2,30.17,West,276,1.0,3.0,92,0.00,,,0.00,WUHU216DAVISVP2,2013-10-30 02:48:00,
2013-10-29 22:53:00,35.2,33.1,30.17,West,271,1.0,3.0,92,0.00,,,0.00,WUHU216DAVISVP2,2013-10-30 02:53:00,
2013-10-29 22:58:00,35.1,33.0,30.17,West,264,0.0,3.0,92,0.00,,,0.00,WUHU216DAVISVP2,2013-10-30 02:58:00,
2013-10-29 23:03:00,34.9,32.8,30.16,West,266,0.0,3.0,92,0.00,,,0.00,WUHU216DAVISVP2,2013-10-30 03:03:00,
2013-10-29 23:08:00,34.9,33.0,30.16,WNW,288,0.0,4.0,93,0.00,,,0.00,WUHU216DAVISVP2,2013-10-30 03:08:00,
2013-10-29 23:13:00,34.9,33.0,30.16,West,279,1.0,4.0,93,0.00,,,0.00,WUHU216DAVISVP2,2013-10-30 03:13:00,
2013-10-29 23:18:00,35.0,33.1,30.16,West,278,1.0,5.0,93,0.00,,,0.00,WUHU216DAVISVP2,2013-10-30 03:18:00,
2013-10-29 23:23:00,35.0,33.1,30.16,WNW,295,0.0,7.0,93,0.00,,,0.00,WUHU216DAVISVP2,2013-10-30 03:23:00,
2013-10-29 23:28:00,35.0,33.1,30.16,West,259,2.0,7.0,93,0.00,,,0.00,WUHU216DAVISVP2,2013-10-30 03:28:00,
2013-10-29 23:33:00,34.9,33.0,30.17,West,274,1.0,7.0,93,0.00,,,0.00,WUHU216DAVISVP2,2013-10-30 03:33:00,
2013-10-29 23:38:00,34.8,32.9,30.16,West,260,1.0,7.0,93,0.00,,,0.00,WUHU216DAVISVP2,2013-10-30 03:38:00,
2013-10-29 23:43:00,34.7,33.1,30.16,West,274,1.0,4.0,94,0.00,,,0.00,WUHU216DAVISVP2,2013-10-30 03:43:00,
2013-10-29 23:48:00,34.8,33.2,30.16,WNW,291,2.0,4.0,94,0.00,,,0.00,WUHU216DAVISVP2,2013-10-30 03:48:00,
2013-10-29 23:53:00,34.8,33.2,30.16,West,276,1.0,4.0,94,0.00,,,0.00,WUHU216DAVISVP2,2013-10-30 03:53:00,
2013-10-29 23:58:00,34.8,33.2,30.15,West,261,1.0,4.0,94,0.00,,,0.00,WUHU216DAVISVP2,2013-10-30 03:58:00,